User: anonymous   Login
Location: Colleton State Park
(33.0623°N, 80.6164°W)
Time: 07:40:21
(UTC-04:00)
Language:

Hubble Space Telescope - Orbit

View from above orbital plane
View from above orbital plane
View from above satellite
View from above satellite

Ground track
Ground track

The orbit data is extracted from the following two-line orbital elements,

1 20580U 90037B   20218.13702546  .00000416  00000-0  14324-4 0  9994
2 20580  28.4705 357.6631 0002492 255.7337  85.0144 15.09413364463419
Epoch (UTC): 05 August 2020 03:17:19
Eccentricity: 0.0002492
inclination: 28.4705°
perigee height: 536 km
apogee height: 540 km
right ascension of ascending node: 357.6631°
argument of perigee: 255.7337°
revolutions per day: 15.09413364
mean anomaly at epoch: 85.0144°
orbit number at epoch: 46341

The dashed part of the orbit path shows where the satellite is in the earth's shadow,  

DLR